Total_Precipitation_Accumulation
0.16 0.18 0.13 0.06 0.00 0.00 0.00 0.00 0.00 0.00 0.00 0.00 0.00 0.00 0.00 0.00 0.00 0.00 0.00 0.00 0.00 0.00 0.00 0.00 0.00 0.00 0.00 0.00 0.00 0.00 0.00 0.00 0.01 0.03 0.04 0.12 0.10 0.06 0.04 0.05 0.02 0.01 0.01 0.00
0.05 0.09 0.05 0.04 0.00 0.00 0.00 0.00 0.00 0.00 0.00 0.00 0.00 0.00 0.00 0.00 0.00 0.00 0.00 0.00 0.00 0.00 0.00 0.00 0.00 0.00 0.00 0.00 0.00 0.00 0.00 0.00 0.00 0.01 0.04 0.08 0.13 0.09 0.08 0.09 0.04 0.02 0.02 0.01
0.01 0.02 0.01 0.00 0.00 0.00 0.00 0.00 0.00 0.00 0.00 0.00 0.00 0.00 0.00 0.00 0.00 0.00 0.00 0.00 0.00 0.00 0.00 0.00 0.00 0.00 0.00 0.00 0.00 0.00 0.00 0.00 0.00 0.03 0.06 0.06 0.12 0.11 0.08 0.06 0.03 0.08 0.06 0.01
0.00 0.00 0.00 0.00 0.00 0.00 0.00 0.00 0.00 0.00 0.00 0.00 0.00 0.00 0.00 0.00 0.00 0.00 0.00 0.00 0.00 0.00 0.00 0.00 0.00 0.00 0.00 0.00 0.00 0.00 0.00 0.00 0.00 0.00 0.02 0.02 0.02 0.05 0.07 0.10 0.16 0.19 0.09 0.02
0.00 0.00 0.00 0.00 0.00 0.00 0.00 0.00 0.00 0.00 0.00 0.00 0.00 0.00 0.00 0.00 0.00 0.00 0.00 0.00 0.00 0.00 0.00 0.00 0.00 0.00 0.00 0.00 0.00 0.00 0.00 0.00 0.00 0.00 0.00 0.02 0.02 0.01 0.03 0.07 0.09 0.08 0.05 0.03
0.00 0.00 0.00 0.00 0.00 0.00 0.00 0.00 0.00 0.00 0.01 0.01 0.00 0.00 0.00 0.00 0.00 0.00 0.00 0.00 0.00 0.00 0.00 0.00 0.00 0.00 0.00 0.00 0.00 0.00 0.00 0.00 0.00 0.00 0.00 0.01 0.01 0.02 0.05 0.05 0.05 0.06 0.04 0.03
0.01 0.00 0.00 0.00 0.00 0.00 0.00 0.01 0.00 0.01 0.02 0.00 0.00 0.00 0.00 0.00 0.00 0.00 0.00 0.00 0.00 0.00 0.00 0.00 0.00 0.00 0.00 0.00 0.00 0.00 0.00 0.00 0.00 0.00 0.01 0.02 0.02 0.04 0.04 0.04 0.04 0.04 0.03 0.04
0.00 0.00 0.00 0.00 0.00 0.00 0.00 0.00 0.00 0.00 0.00 0.00 0.00 0.00 0.00 0.00 0.00 0.00 0.00 0.00 0.00 0.00 0.00 0.00 0.00 0.00 0.00 0.00 0.00 0.00 0.00 0.00 0.01 0.00 0.01 0.01 0.02 0.04 0.04 0.04 0.05 0.05 0.04 0.03
0.00 0.00 0.00 0.00 0.00 0.00 0.00 0.00 0.00 0.01 0.00 0.00 0.00 0.00 0.00 0.00 0.00 0.00 0.00 0.00 0.00 0.00 0.00 0.00 0.00 0.00 0.00 0.00 0.00 0.00 0.00 0.00 0.02 0.02 0.03 0.01 0.03 0.04 0.03 0.03 0.04 0.04 0.03 0.03
0.00 0.00 0.00 0.00 0.00 0.00 0.00 0.00 0.01 0.03 0.01 0.00 0.00 0.00 0.00 0.00 0.00 0.00 0.00 0.00 0.00 0.00 0.00 0.00 0.00 0.00 0.00 0.00 0.00 0.00 0.00 0.01 0.02 0.02 0.02 0.03 0.05 0.05 0.05 0.04 0.04 0.03 0.03 0.03
0.00 0.00 0.00 0.00 0.00 0.00 0.00 0.01 0.01 0.02 0.01 0.01 0.00 0.00 0.00 0.00 0.00 0.00 0.00 0.00 0.00 0.00 0.00 0.00 0.00 0.00 0.00 0.00 0.00 0.00 0.02 0.05 0.02 0.02 0.01 0.02 0.05 0.06 0.06 0.05 0.03 0.02 0.02 0.03
0.00 0.00 0.00 0.00 0.00 0.00 0.00 0.00 0.00 0.06 0.02 0.07 0.07 0.03 0.00 0.00 0.00 0.00 0.00 0.00 0.00 0.00 0.00 0.00 0.00 0.00 0.00 0.00 0.00 0.00 0.05 0.06 0.01 0.02 0.04 0.03 0.03 0.04 0.06 0.05 0.04 0.02 0.03 0.03
0.00 0.01 0.00 0.00 0.01 0.01 0.00 0.00 0.00 0.03 0.18 0.16 0.10 0.05 0.00 0.00 0.00 0.00 0.00 0.00 0.00 0.00 0.00 0.00 0.00 0.00 0.00 0.01 0.02 0.07 0.11 0.03 0.02 0.03 0.04 0.04 0.03 0.04 0.04 0.04 0.04 0.03 0.03 0.04
0.00 0.00 0.00 0.00 0.00 0.02 0.03 0.00 0.01 0.16 0.35 0.08 0.03 0.00 0.00 0.00 0.00 0.01 0.02 0.01 0.01 0.01 0.01 0.03 0.02 0.01 0.01 0.01 0.08 0.15 0.08 0.04 0.05 0.09 0.07 0.06 0.04 0.03 0.03 0.03 0.03 0.04 0.03 0.02
0.00 0.01 0.00 0.00 0.00 0.00 0.00 0.00 0.01 0.17 0.13 0.23 0.08 0.00 0.00 0.01 0.02 0.03 0.02 0.01 0.01 0.01 0.00 0.00 0.01 0.02 0.02 0.02 0.08 0.09 0.08 0.11 0.12 0.18 0.14 0.06 0.05 0.03 0.02 0.03 0.04 0.04 0.02 0.07
0.00 0.01 0.01 0.00 0.00 0.00 0.00 0.00 0.02 0.02 0.02 0.04 0.01 0.01 0.01 0.03 0.02 0.01 0.00 0.00 0.00 0.00 0.00 0.00 0.00 0.01 0.04 0.03 0.01 0.04 0.12 0.11 0.11 0.09 0.10 0.12 0.04 0.05 0.03 0.04 0.04 0.03 0.03 0.06
0.01 0.00 0.03 0.02 0.00 0.00 0.02 0.01 0.01 0.01 0.00 0.01 0.02 0.06 0.04 0.01 0.03 0.03 0.02 0.00 0.00 0.00 0.00 0.00 0.00 0.00 0.00 0.00 0.02 0.09 0.31 0.26 0.17 0.15 0.12 0.18 0.10 0.07 0.09 0.09 0.09 0.12 0.11 0.08
0.00 0.01 0.10 0.05 0.01 0.02 0.02 0.00 0.01 0.00 0.00 0.00 0.03 0.13 0.07 0.06 0.11 0.12 0.05 0.01 0.01 0.00 0.00 0.00 0.00 0.00 0.00 0.00 0.02 0.09 0.25 0.31 0.16 0.16 0.25 0.28 0.25 0.30 0.33 0.42 0.40 0.39 0.44 0.48
0.01 0.02 0.10 0.09 0.05 0.02 0.01 0.00 0.02 0.00 0.00 0.00 0.01 0.05 0.03 0.04 0.19 0.21 0.10 0.05 0.02 0.02 0.01 0.01 0.00 0.00 0.00 0.02 0.03 0.07 0.22 0.55 0.47 0.42 0.35 0.36 0.39 0.52 0.57 0.65 0.67 0.56 0.37 0.25
0.01 0.03 0.12 0.09 0.09 0.02 0.01 0.00 0.00 0.00 0.00 0.00 0.01 0.00 0.00 0.01 0.04 0.22 0.40 0.33 0.11 0.02 0.01 0.01 0.01 0.01 0.03 0.03 0.04 0.15 0.27 0.61 0.89 0.97 1.07 0.82 0.74 0.67 0.60 0.47 0.38 0.20 0.08 0.02
0.01 0.03 0.06 0.07 0.06 0.00 0.00 0.00 0.00 0.00 0.01 0.00 0.03 0.00 0.00 0.00 0.01 0.01 0.02 0.17 0.28 0.18 0.10 0.05 0.08 0.13 0.19 0.20 0.25 0.35 0.47 0.73 1.03 0.93 0.60 0.51 0.46 0.34 0.28 0.19 0.05 0.02 0.01 0.00
0.00 0.00 0.01 0.02 0.02 0.00 0.00 0.00 0.00 0.00 0.00 0.00 0.01 0.03 0.00 0.01 0.02 0.03 0.02 0.01 0.04 0.10 0.25 0.44 0.48 0.61 0.61 0.67 0.70 0.75 0.61 0.49 0.37 0.16 0.12 0.04 0.03 0.02 0.01 0.00 0.00 0.00 0.00 0.00
0.00 0.00 0.00 0.00 0.00 0.00 0.00 0.00 0.00 0.00 0.00 0.00 0.00 0.00 0.00 0.00 0.00 0.00 0.01 0.01 0.01 0.00 0.00 0.00 0.04 0.15 0.16 0.15 0.10 0.11 0.06 0.01 0.01 0.00 0.00 0.00 0.00 0.00 0.00 0.00 0.00 0.00 0.00 0.00
0.00 0.00 0.00 0.00 0.00 0.00 0.00 0.00 0.00 0.00 0.00 0.00 0.00 0.00 0.00 0.00 0.00 0.00 0.00 0.00 0.00 0.00 0.00 0.00 0.00 0.00 0.00 0.00 0.00 0.00 0.00 0.00 0.00 0.00 0.00 0.00 0.00 0.00 0.00 0.00 0.00 0.00 0.00 0.00
0.00 0.00 0.00 0.00 0.00 0.00 0.00 0.00 0.00 0.00 0.00 0.00 0.00 0.00 0.00 0.00 0.00 0.00 0.00 0.00 0.00 0.00 0.00 0.00 0.00 0.00 0.00 0.00 0.00 0.00 0.00 0.00 0.00 0.00 0.00 0.00 0.00 0.00 0.00 0.00 0.00 0.00 0.00 0.00
0.00 0.00 0.00 0.00 0.00 0.00 0.00 0.00 0.00 0.00 0.00 0.00 0.00 0.00 0.00 0.00 0.00 0.00 0.00 0.00 0.00 0.00 0.00 0.00 0.00 0.00 0.00 0.00 0.00 0.00 0.00 0.00 0.00 0.00 0.00 0.00 0.00 0.00 0.00 0.00 0.00 0.00 0.00 0.00